Satellite-Ground Cal/Val Site Overpasses Predictions

Prediction of Satellite NPP Overpassing Cal/Val Site: Antarctic Dome C

Ground Cal/Val Site Location: Latitude: -75.10, Longitude: 123.35; Satellite-Ground Site NADIR distance within 100 km.

Table of predicted overpasses for the next 14.0 days since TLE Epoch: 12/16/2016
Interval Starting Time Ending Time Minimum Distance Time Minimum Distance (km)
1 12/17/2016 15:01:49 12/17/2016 15:02:13 12/17/2016 15:02:01 59.76
2 12/18/2016 14:42:58 12/18/2016 14:43:23 12/18/2016 14:43:11 49.53
3 12/19/2016 07:44:40 12/19/2016 07:44:59 12/19/2016 07:44:50 74.64
4 12/20/2016 07:25:46 12/20/2016 07:26:13 12/20/2016 07:26:00 33.28
5 12/22/2016 15:08:13 12/22/2016 15:08:19 12/22/2016 15:08:16 97.58
6 12/23/2016 14:49:12 12/23/2016 14:49:41 12/23/2016 14:49:26 13.78
7 12/25/2016 07:32:00 12/25/2016 07:32:30 12/25/2016 07:32:15 3.52
8 12/28/2016 14:55:27 12/28/2016 14:55:56 12/28/2016 14:55:41 22.88
9 12/29/2016 14:36:44 12/29/2016 14:36:59 12/29/2016 14:36:51 84.49


<
